TimeCST,TemperatureF,Dew PointF,Humidity,Sea Level PressureIn,VisibilityMPH,Wind Direction,Wind SpeedMPH,Gust SpeedMPH,PrecipitationIn,Events,Conditions,WindDirDegrees,DateUTC
12:53 AM,45.0,35.1,68,30.20,10.0,SSW,6.9,-,N/A,,Clear,210,2013-01-20 06:53:00
1:53 AM,45.0,34.0,65,30.20,10.0,SW,9.2,-,N/A,,Clear,220,2013-01-20 07:53:00
2:53 AM,43.0,34.0,71,30.21,10.0,SW,5.8,-,N/A,,Clear,220,2013-01-20 08:53:00
3:53 AM,41.0,33.1,73,30.20,10.0,Calm,Calm,-,N/A,,Clear,0,2013-01-20 09:53:00
4:53 AM,36.0,33.1,89,30.21,10.0,Calm,Calm,-,N/A,,Clear,0,2013-01-20 10:53:00
5:53 AM,34.0,32.0,92,30.22,10.0,Calm,Calm,-,N/A,,Clear,0,2013-01-20 11:53:00
6:53 AM,33.1,32.0,96,30.24,10.0,Calm,Calm,-,N/A,,Clear,0,2013-01-20 12:53:00
7:53 AM,35.1,33.1,92,30.26,10.0,North,3.5,-,N/A,,Clear,360,2013-01-20 13:53:00
8:53 AM,43.0,35.1,74,30.28,10.0,NNE,8.1,-,N/A,,Clear,20,2013-01-20 14:53:00
9:53 AM,48.9,36.0,61,30.28,10.0,NNE,10.4,-,N/A,,Clear,30,2013-01-20 15:53:00
10:53 AM,53.1,30.9,43,30.27,10.0,ENE,11.5,-,N/A,,Clear,60,2013-01-20 16:53:00
11:53 AM,55.0,30.9,40,30.23,10.0,NE,10.4,-,N/A,,Clear,50,2013-01-20 17:53:00
12:53 PM,55.9,30.9,39,30.20,10.0,NE,8.1,-,N/A,,Clear,40,2013-01-20 18:53:00
1:53 PM,57.0,30.9,37,30.19,10.0,East,4.6,-,N/A,,Clear,90,2013-01-20 19:53:00
2:53 PM,57.9,34.0,41,30.18,10.0,North,6.9,-,N/A,,Clear,360,2013-01-20 20:53:00
3:53 PM,54.0,36.0,51,30.18,10.0,North,10.4,-,N/A,,Clear,360,2013-01-20 21:53:00
4:53 PM,50.0,33.1,52,30.18,10.0,North,9.2,-,N/A,,Clear,10,2013-01-20 22:53:00
5:53 PM,44.1,32.0,63,30.18,10.0,North,8.1,-,N/A,,Clear,10,2013-01-20 23:53:00
6:53 PM,42.1,34.0,73,30.18,10.0,North,8.1,-,N/A,,Clear,10,2013-01-21 00:53:00
7:53 PM,41.0,33.1,73,30.19,10.0,NNE,10.4,-,N/A,,Clear,20,2013-01-21 01:53:00
8:53 PM,37.9,30.0,73,30.19,10.0,NNE,5.8,-,N/A,,Clear,20,2013-01-21 02:53:00
9:53 PM,37.0,28.9,73,30.20,10.0,North,4.6,-,N/A,,Clear,360,2013-01-21 03:53:00
10:53 PM,36.0,28.9,76,30.20,10.0,North,3.5,-,N/A,,Clear,10,2013-01-21 04:53:00
11:53 PM,35.1,28.9,78,30.19,10.0,Calm,Calm,-,N/A,,Clear,0,2013-01-21 05:53:00